period_start,C,m1,H,J0,J1,J2,J3,J4,J5,JA,JB,JC,JD,JJ,JK,JN,#
2014-09-06 00:00:02,0.04,1.18,0.00,23.28,27.80,30.23,9.46,38.13,1001.48,2035.95,3000.52,2978.06,3190.74,500.26,489.14,32.49,0000 0000 0000 0000 000000
2014-09-06 00:05:04,0.03,1.19,0.00,23.27,27.80,30.19,9.40,38.10,1001.48,2035.96,2999.82,2977.76,3190.05,499.55,488.64,32.53,0000 0000 0000 0000 000000
2014-09-06 00:10:05,0.04,1.19,0.00,23.28,27.78,30.17,9.43,38.02,1001.49,2035.97,2999.03,2977.07,3189.55,499.91,488.63,32.57,0000 0000 0000 0000 000000
2014-09-06 00:15:06,0.03,1.19,0.00,23.30,27.77,30.18,9.43,38.00,1001.50,2035.97,2998.14,2976.85,3188.96,499.92,488.72,32.61,0000 0000 0000 0000 000000
2014-09-06 00:20:07,0.06,1.19,0.00,23.27,27.77,30.17,9.40,37.80,1001.51,2035.99,2997.27,2976.10,3188.13,500.17,489.02,32.66,0000 0000 0000 0000 000000
2014-09-06 00:25:08,0.06,1.20,0.00,23.29,27.75,30.16,9.41,37.73,1001.51,2035.99,2996.29,2975.69,3187.51,499.75,488.57,32.70,0000 0000 0000 0000 000000
2014-09-06 00:30:09,0.04,1.20,0.00,23.32,27.75,30.13,9.43,38.04,1001.52,2035.99,2995.25,2975.01,3186.87,500.26,488.93,32.74,0000 0000 0000 0000 000000
2014-09-06 00:35:10,0.06,1.20,0.00,23.31,27.75,30.13,9.37,37.97,1001.57,2035.99,2994.31,2974.33,3186.06,499.93,488.80,32.78,0000 0000 0000 0000 000000
2014-09-06 00:40:12,0.03,1.20,0.00,23.31,27.75,30.14,9.45,38.17,1001.87,2035.99,2993.52,2973.98,3185.49,500.20,489.16,32.82,0000 0000 0000 0000 000000
2014-09-06 00:45:13,0.06,1.20,0.00,23.32,27.75,30.11,9.45,38.08,1001.95,2035.99,2992.57,2973.22,3184.79,500.21,489.21,32.86,0000 0000 0000 0000 000000
2014-09-06 00:50:15,0.03,1.21,0.00,23.35,27.74,30.12,9.43,37.88,1001.85,2035.99,2991.79,2972.96,3184.07,500.02,488.85,32.91,0000 0000 0000 0000 000000
2014-09-06 00:55:16,0.07,1.21,0.00,23.38,27.74,30.14,9.39,37.83,1001.56,2035.99,2990.81,2972.15,3183.46,499.61,488.33,32.95,0000 0000 0000 0000 000000
2014-09-06 01:00:17,0.06,1.21,0.00,23.41,27.74,30.12,9.36,37.96,1001.49,2035.99,2989.86,2971.41,3182.55,499.70,488.37,32.99,0000 0000 0000 0000 000000
2014-09-06 01:05:18,0.03,1.21,0.00,23.42,27.75,30.11,9.41,38.05,1001.48,2035.99,2988.92,2970.97,3181.95,500.35,488.95,33.03,0000 0000 0000 0000 000000
2014-09-06 01:10:19,0.07,1.22,0.00,23.44,27.75,30.13,9.40,38.00,1001.43,2035.99,2988.03,2970.24,3181.12,499.88,488.59,33.07,0000 0000 0000 0000 000000
2014-09-06 01:15:20,0.03,1.22,0.00,23.46,27.75,30.15,9.40,37.99,1001.39,2035.99,2987.27,2969.94,3180.73,500.44,488.82,33.11,0000 0000 0000 0000 000000
2014-09-06 01:20:21,0.06,1.22,0.00,23.49,27.75,30.13,9.41,38.09,1001.27,2035.99,2986.24,2969.12,3179.98,500.02,488.32,33.16,0000 0000 0000 0000 000000
2014-09-06 01:25:22,0.05,1.22,0.00,23.52,27.77,30.14,9.35,38.14,1001.35,2035.99,2985.36,2968.72,3179.15,500.01,488.31,33.20,0000 0000 0000 0000 000000
2014-09-06 01:30:23,0.05,1.22,0.00,23.54,27.77,30.15,9.47,38.16,1001.46,2035.99,2984.65,2968.03,3178.53,500.34,488.43,33.24,0000 0000 0000 0000 000000
2014-09-06 01:35:24,0.02,1.23,0.00,23.56,27.78,30.15,9.42,38.26,1001.48,2035.97,2984.01,2967.76,3177.99,499.66,488.11,33.28,0000 0000 0000 0000 000000
2014-09-06 01:40:25,0.05,1.23,0.00,23.58,27.80,30.16,9.38,38.27,1001.55,2035.95,2983.46,2967.07,3177.35,499.62,488.01,33.32,0000 0000 0000 0000 000000
2014-09-06 01:45:27,-0.00,1.23,0.00,23.62,27.80,30.18,9.40,38.08,1001.87,2035.83,2982.97,2966.92,3176.99,499.90,488.67,33.37,0000 0000 0000 0000 000000
2014-09-06 01:50:28,0.06,1.23,0.00,23.64,27.81,30.18,9.41,38.37,1001.97,2035.76,2982.31,2966.25,3176.55,499.87,488.34,33.41,0000 0000 0000 0000 000000
2014-09-06 01:55:29,-0.04,1.23,0.00,23.67,27.82,30.20,9.37,38.15,1001.97,2035.34,2981.78,2965.99,3176.01,500.29,488.86,33.45,0000 0000 0000 0000 000000
2014-09-06 02:00:30,0.03,1.23,0.00,23.72,27.84,30.20,9.36,38.13,1001.95,2035.17,2981.05,2965.58,3175.56,499.80,488.00,33.49,0000 0000 0000 0000 000000
2014-09-06 02:05:31,0.02,1.23,0.00,23.75,27.85,30.22,9.41,38.45,1001.84,2035.10,2980.64,2965.03,3175.01,500.08,488.23,33.53,0000 0000 0000 0000 000000
2014-09-06 02:10:32,0.03,1.23,0.00,23.76,27.86,30.23,9.34,38.32,1001.54,2035.02,2979.99,2964.81,3174.63,500.03,488.00,33.57,0000 0000 0000 0000 000000
2014-09-06 02:15:33,0.04,1.23,0.00,23.77,27.87,30.25,9.38,38.61,1001.51,2035.01,2979.33,2964.13,3174.02,499.78,487.83,33.61,0000 0000 0000 0000 000000
2014-09-06 02:20:34,0.01,1.24,0.00,23.80,27.90,30.25,9.43,38.71,1001.48,2035.00,2978.94,2963.98,3173.79,500.07,488.03,33.66,0000 0000 0000 0000 000000
2014-09-06 02:25:35,0.05,1.24,0.00,23.85,27.91,30.27,9.37,38.40,1001.48,2035.00,2978.20,2963.67,3173.13,500.13,487.93,33.70,0000 0000 0000 0000 000000
2014-09-06 02:30:36,0.07,1.24,0.00,23.89,27.92,30.30,9.29,38.27,1001.48,2035.00,2977.38,2962.80,3172.37,500.00,487.83,33.74,0000 0000 0000 0000 000000
2014-09-06 02:35:37,0.03,1.24,0.00,23.92,27.94,30.31,9.38,38.41,1001.48,2035.00,2976.82,2962.05,3171.93,499.90,487.41,33.78,0000 0000 0000 0000 000000
2014-09-06 02:40:38,0.03,1.24,0.00,23.93,27.96,30.32,9.35,38.12,1001.48,2035.00,2976.06,2961.97,3171.14,499.69,487.44,33.82,0000 0000 0000 0000 000000
2014-09-06 02:45:39,0.04,1.24,0.00,23.95,27.97,30.33,9.45,38.21,1001.50,2034.99,2975.65,2961.38,3170.92,500.37,488.07,33.86,0000 0000 0000 0000 000000
2014-09-06 02:50:40,0.03,1.25,0.00,23.98,28.00,30.37,9.36,38.09,1001.70,2034.98,2974.97,2961.00,3170.09,500.28,488.04,33.90,0000 0000 0000 0000 000000
2014-09-06 02:55:42,0.04,1.25,0.00,24.03,28.01,30.37,9.36,38.09,1001.91,2034.97,2974.28,2960.64,3169.99,500.05,487.95,33.95,0000 0000 0000 0000 000000
2014-09-06 03:00:43,0.02,1.25,0.00,24.07,28.03,30.40,9.39,38.22,1001.96,2034.93,2974.00,2960.03,3169.41,499.88,487.66,33.99,0000 0000 0000 0000 000000
2014-09-06 03:05:44,0.00,1.25,0.00,24.11,28.06,30.40,9.35,38.20,1001.97,2034.79,2973.63,2959.99,3169.01,499.73,487.49,34.03,0000 0000 0000 0000 000000
2014-09-06 03:10:45,-0.02,1.25,0.00,24.14,28.08,30.42,9.43,38.13,1001.98,2034.35,2973.01,2959.53,3168.78,500.24,487.86,34.07,0000 0000 0000 0000 000000
2014-09-06 03:15:46,0.00,1.25,0.00,24.19,28.10,30.45,9.32,38.08,1002.00,2034.08,2972.73,2959.03,3168.07,499.72,487.45,34.11,0000 0000 0000 0000 000000
2014-09-06 03:20:47,0.01,1.25,0.00,24.21,28.12,30.46,9.38,38.06,1001.99,2034.01,2972.12,2958.98,3167.98,499.84,487.41,34.15,0000 0000 0000 0000 000000
2014-09-06 03:25:48,0.05,1.25,0.00,24.22,28.15,30.49,9.36,38.12,1001.98,2034.00,2971.78,2958.34,3167.35,500.28,487.70,34.20,0000 0000 0000 0000 000000
2014-09-06 03:30:50,0.01,1.25,0.00,24.24,28.17,30.51,9.35,38.22,1001.97,2034.00,2971.12,2958.00,3166.99,499.60,487.09,34.24,0000 0000 0000 0000 000000
2014-09-06 03:35:51,0.04,1.25,0.00,24.27,28.19,30.54,9.38,38.26,1001.97,2033.99,2970.81,2957.71,3166.35,500.08,487.41,34.28,0000 0000 0000 0000 000000
2014-09-06 03:40:52,0.03,1.26,0.00,24.29,28.21,30.57,9.32,38.12,1001.97,2033.97,2970.07,2957.04,3166.00,499.69,487.09,34.32,0000 0000 0000 0000 000000
2014-09-06 03:45:54,0.01,1.26,0.00,24.30,28.24,30.59,9.38,38.29,1001.97,2033.95,2969.92,2956.98,3165.68,499.80,487.17,34.36,0000 0000 0000 0000 000000
2014-09-06 03:50:55,0.04,1.26,0.00,24.33,28.26,30.61,9.35,38.13,1001.97,2033.89,2969.16,2956.48,3165.05,500.07,487.43,34.40,0000 0000 0000 0000 000000
2014-09-06 03:55:56,-0.05,1.26,0.00,24.33,28.29,30.64,9.36,38.42,1001.97,2033.48,2968.90,2956.01,3164.90,499.79,487.10,34.45,0000 0000 0000 0000 000000
2014-09-06 04:00:57,0.01,1.26,0.00,24.34,28.31,30.68,9.37,38.21,1001.99,2033.07,2968.13,2955.77,3164.15,500.23,487.64,34.49,0000 0000 0000 0000 000000
2014-09-06 04:05:58,0.02,1.26,0.00,24.37,28.33,30.69,9.36,38.19,1002.00,2033.03,2967.89,2955.15,3163.97,499.99,487.30,34.53,0000 0000 0000 0000 000000
2014-09-06 04:11:00,0.03,1.26,0.00,24.39,28.35,30.73,9.40,38.26,1002.02,2033.01,2967.08,2955.00,3163.41,499.77,486.95,34.57,0000 0000 0000 0000 000000
2014-09-06 04:16:01,0.01,1.26,0.00,24.38,28.37,30.74,9.37,38.16,1002.01,2033.01,2966.96,2954.84,3163.03,500.09,487.38,34.61,0000 0000 0000 0000 000000
2014-09-06 04:21:02,0.05,1.26,0.00,24.41,28.40,30.76,9.36,38.10,1002.04,2033.00,2966.18,2954.08,3162.79,499.68,487.05,34.65,0000 0000 0000 0000 000000
2014-09-06 04:26:03,0.02,1.26,0.00,24.40,28.41,30.80,9.40,38.04,1002.13,2033.00,2965.81,2953.91,3162.07,500.13,487.35,34.70,0000 0000 0000 0000 000000
2014-09-06 04:31:04,0.04,1.26,0.00,24.40,28.43,30.82,9.32,38.11,1002.30,2032.98,2965.05,2953.24,3161.94,499.74,487.06,34.74,0000 0000 0000 0000 000000
2014-09-06 04:36:05,0.01,1.27,0.00,24.40,28.45,30.84,9.40,38.11,1002.31,2032.96,2964.98,2953.01,3161.29,499.91,487.32,34.78,0000 0000 0000 0000 000000
2014-09-06 04:41:07,0.01,1.27,0.00,24.44,28.47,30.85,9.42,38.00,1002.15,2032.90,2964.36,2952.97,3161.00,499.93,487.06,34.82,0000 0000 0000 0000 000000
2014-09-06 04:46:08,-0.00,1.27,0.00,24.44,28.48,30.86,9.41,37.99,1002.28,2032.67,2964.00,2952.42,3160.84,500.62,487.86,34.86,0000 0000 0000 0000 000000
2014-09-06 04:51:09,-0.01,1.27,0.00,24.44,28.50,30.89,9.36,37.96,1002.46,2032.21,2963.51,2952.01,3160.11,500.00,487.62,34.90,0000 0000 0000 0000 000000
2014-09-06 04:56:10,0.00,1.27,0.00,24.44,28.52,30.91,9.40,38.19,1002.46,2032.12,2963.02,2951.97,3160.00,499.95,487.44,34.95,0000 0000 0000 0000 000000
2014-09-06 05:01:11,0.04,1.27,0.00,24.46,28.54,30.92,9.45,38.24,1002.47,2032.06,2962.75,2951.42,3159.71,500.15,487.55,34.99,0000 0000 0000 0000 000000
2014-09-06 05:06:12,0.02,1.27,0.00,24.49,28.55,30.94,9.37,38.14,1002.47,2032.03,2962.04,2951.02,3159.07,499.89,487.29,35.03,0000 0000 0000 0000 000000
2014-09-06 05:11:14,0.01,1.27,0.00,24.51,28.57,30.94,9.32,38.06,1002.47,2032.08,2961.89,2950.98,3158.98,499.82,487.08,35.07,0000 0000 0000 0000 000000
2014-09-06 05:16:15,0.05,1.27,0.00,24.51,28.59,30.97,9.33,38.15,1002.47,2032.03,2961.12,2950.44,3158.47,499.54,486.85,35.11,0000 0000 0000 0000 000000
2014-09-06 05:21:15,0.01,1.27,0.00,24.52,28.60,30.98,9.42,38.13,1002.50,2032.01,2960.97,2950.01,3158.01,499.97,487.32,35.15,0000 0000 0000 0000 000000
2014-09-06 05:26:16,0.02,1.27,0.00,24.54,28.62,30.99,9.42,38.11,1002.57,2032.00,2960.33,2949.97,3157.93,500.31,487.76,35.19,0000 0000 0000 0000 000000
2014-09-06 05:31:18,0.04,1.27,0.00,24.57,28.64,31.00,9.41,38.10,1002.54,2032.00,2959.99,2949.44,3157.18,500.07,487.30,35.24,0000 0000 0000 0000 000000
2014-09-06 05:36:19,0.02,1.28,0.00,24.58,28.65,31.01,9.35,37.96,1002.79,2032.00,2959.38,2949.02,3157.00,500.14,487.34,35.28,0000 0000 0000 0000 000000
2014-09-06 05:41:20,0.03,1.28,0.00,24.58,28.67,31.03,9.33,38.00,1002.94,2032.00,2958.81,2948.88,3156.52,500.00,487.58,35.32,0000 0000 0000 0000 000000
2014-09-06 05:46:21,0.04,1.28,0.00,24.59,28.68,31.04,9.37,37.86,1002.94,2032.00,2958.04,2948.09,3156.01,500.05,487.43,35.36,0000 0000 0000 0000 000000
2014-09-06 05:51:22,0.02,1.28,0.00,24.59,28.70,31.06,9.39,37.98,1002.93,2032.00,2957.64,2947.98,3155.70,499.88,487.29,35.40,0000 0000 0000 0000 000000
2014-09-06 05:56:24,0.04,1.28,0.00,24.57,28.71,31.08,9.33,37.94,1002.94,2031.99,2957.00,2947.30,3155.02,499.98,487.33,35.44,0000 0000 0000 0000 000000
2014-09-06 06:01:25,0.03,1.28,0.00,24.60,28.72,31.10,9.35,38.22,1002.95,2031.98,2956.38,2947.01,3154.78,499.86,487.24,35.49,0000 0000 0000 0000 000000
2014-09-06 06:06:26,0.01,1.28,0.00,24.62,28.74,31.11,9.37,38.04,1003.03,2031.89,2956.03,2946.96,3154.07,499.92,487.32,35.53,0000 0000 0000 0000 000000
2014-09-06 06:11:27,0.02,1.28,0.00,24.65,28.75,31.11,9.40,38.13,1003.29,2031.83,2955.86,2946.44,3153.98,500.30,487.58,35.57,0000 0000 0000 0000 000000
2014-09-06 06:16:28,0.02,1.29,0.00,24.66,28.77,31.13,9.44,38.11,1003.42,2031.72,2955.06,2946.00,3153.33,500.06,487.74,35.61,0000 0000 0000 0000 000000
2014-09-06 06:21:30,0.08,1.29,0.00,24.67,28.78,31.14,9.44,38.04,1003.44,2031.79,2954.30,2945.51,3153.00,500.47,487.99,35.65,0000 0000 0000 0000 000000
2014-09-06 06:26:31,0.02,1.29,0.00,24.65,28.80,31.16,9.33,37.79,1003.48,2031.75,2953.96,2945.02,3152.73,499.67,487.28,35.69,0000 0000 0000 0000 000000
2014-09-06 06:31:32,-0.04,1.29,0.00,24.64,28.80,31.17,9.44,38.08,1003.50,2031.41,2953.97,2945.00,3152.10,500.10,487.73,35.74,0000 0000 0000 0000 000000
2014-09-06 06:36:33,-0.00,1.29,0.00,24.65,28.81,31.18,9.44,38.00,1003.45,2031.26,2953.68,2944.97,3152.00,500.14,487.77,35.78,0000 0000 0000 0000 000000
2014-09-06 06:41:34,-0.00,1.29,0.00,24.65,28.82,31.21,9.40,38.02,1003.53,2031.07,2953.34,2944.84,3151.99,500.07,487.60,35.82,0000 0000 0000 0000 000000
2014-09-06 06:46:35,0.02,1.29,0.00,24.64,28.82,31.21,9.39,38.16,1003.90,2031.06,2953.00,2944.23,3151.96,499.76,487.59,35.86,0000 0000 0000 0000 000000
2014-09-06 06:51:36,0.02,1.29,0.00,24.64,28.82,31.22,9.38,37.97,1003.91,2031.04,2952.90,2944.01,3151.38,500.16,487.89,35.90,0000 0000 0000 0000 000000
2014-09-06 06:56:37,0.01,1.29,0.00,24.63,28.84,31.23,9.38,38.08,1003.92,2031.03,2952.40,2944.00,3151.03,499.90,487.78,35.94,0000 0000 0000 0000 000000
2014-09-06 07:01:39,0.01,1.29,0.00,24.63,28.85,31.23,9.37,37.96,1003.92,2031.05,2952.07,2944.00,3151.01,499.95,487.81,35.98,0000 0000 0000 0000 000000
2014-09-06 07:06:40,0.00,1.29,0.00,24.62,28.85,31.23,9.45,37.96,1003.92,2031.05,2951.98,2943.97,3150.99,500.24,488.03,36.03,0000 0000 0000 0000 000000
2014-09-06 07:11:41,0.02,1.29,0.00,24.64,28.85,31.25,9.40,37.93,1003.92,2031.03,2951.83,2943.73,3150.86,499.88,487.71,36.07,0000 0000 0000 0000 000000
2014-09-06 07:16:43,0.04,1.29,0.00,24.64,28.85,31.25,9.37,37.92,1003.92,2031.03,2951.11,2943.13,3150.37,500.04,487.83,36.11,0000 0000 0000 0000 000000
2014-09-06 07:21:44,0.01,1.29,0.00,24.65,28.87,31.24,9.32,37.94,1003.93,2031.03,2951.01,2943.02,3150.07,499.81,487.65,36.15,0000 0000 0000 0000 000000
2014-09-06 07:26:45,0.01,1.29,0.00,24.65,28.87,31.24,9.42,37.93,1003.93,2031.06,2950.71,2943.00,3150.00,500.26,487.93,36.19,0000 0000 0000 0000 000000
2014-09-06 07:31:46,-0.01,1.29,0.00,24.67,28.87,31.26,9.38,37.98,1003.93,2031.03,2950.56,2942.98,3149.98,499.66,487.22,36.23,0000 0000 0000 0000 000000
2014-09-06 07:36:47,0.03,1.29,0.00,24.67,28.87,31.26,9.32,37.79,1003.95,2031.01,2950.20,2942.79,3149.78,499.86,487.66,36.28,0000 0000 0000 0000 000000
2014-09-06 07:41:48,0.03,1.30,0.00,24.66,28.87,31.26,9.38,38.02,1004.08,2031.00,2950.02,2942.15,3149.13,499.80,487.58,36.32,0000 0000 0000 0000 000000
2014-09-06 07:46:50,0.00,1.30,0.00,24.66,28.89,31.26,9.34,37.89,1004.39,2031.00,2950.00,2942.04,3149.03,499.98,488.05,36.36,0000 0000 0000 0000 000000
2014-09-06 07:51:50,0.00,1.30,0.00,24.65,28.90,31.27,9.35,37.96,1004.42,2031.00,2949.96,2942.01,3149.00,499.85,487.78,36.40,0000 0000 0000 0000 000000
2014-09-06 07:56:52,0.01,1.30,0.00,24.64,28.90,31.27,9.39,37.88,1004.43,2031.00,2949.53,2942.00,3149.00,500.07,487.91,36.44,0000 0000 0000 0000 000000
2014-09-06 08:01:53,0.01,1.30,0.00,24.62,28.90,31.27,9.36,37.94,1004.44,2030.99,2949.17,2942.00,3148.98,499.73,487.83,36.48,0000 0000 0000 0000 000000
2014-09-06 08:06:54,-0.00,1.30,0.00,24.63,28.90,31.29,9.45,38.00,1004.55,2030.99,2949.21,2941.99,3148.98,500.23,488.31,36.52,0000 0000 0000 0000 000000
2014-09-06 08:11:55,-0.01,1.30,0.00,24.65,28.91,31.29,9.39,38.07,1004.58,2030.99,2949.52,2941.99,3148.97,500.19,488.22,36.57,0000 0000 0000 0000 000000
2014-09-06 08:16:56,-0.00,1.30,0.00,24.67,28.92,31.28,9.39,37.78,1004.77,2030.99,2949.55,2941.98,3148.96,500.22,488.35,36.61,0000 0000 0000 0000 000000
2014-09-06 08:21:57,-0.00,1.30,0.00,24.67,28.92,31.27,9.42,38.03,1004.88,2030.97,2949.81,2941.97,3148.92,500.20,488.32,36.65,0000 0000 0000 0000 000000
2014-09-06 08:26:59,0.00,1.30,0.00,24.70,28.92,31.31,9.38,37.84,1004.90,2030.95,2949.84,2941.94,3148.81,500.08,488.36,36.69,0000 0000 0000 0000 000000
2014-09-06 08:32:00,0.01,1.30,0.00,24.68,28.92,31.30,9.39,37.98,1004.90,2030.80,2949.39,2941.80,3148.33,500.18,488.48,36.73,0000 0000 0000 0000 000000
2014-09-06 08:37:01,-0.00,1.30,0.00,24.67,28.92,31.31,9.38,37.98,1004.91,2030.76,2949.33,2941.76,3148.23,499.87,488.12,36.77,0000 0000 0000 0000 000000
2014-09-06 08:42:02,-0.01,1.30,0.00,24.65,28.93,31.31,9.37,38.14,1004.92,2030.63,2949.40,2941.78,3148.22,500.41,488.68,36.82,0000 0000 0000 0000 000000
2014-09-06 08:47:03,-0.01,1.30,0.00,24.65,28.93,31.31,9.36,38.00,1005.00,2030.51,2949.39,2941.71,3148.18,499.72,488.10,36.86,0000 0000 0000 0000 000000
2014-09-06 08:52:05,0.00,1.30,0.00,24.65,28.94,31.31,9.40,38.06,1005.35,2030.42,2949.15,2941.48,3148.07,499.96,488.47,36.90,0000 0000 0000 0000 000000
2014-09-06 08:57:05,0.01,1.30,0.00,24.63,28.94,31.32,9.45,38.27,1005.39,2030.34,2949.07,2941.32,3148.04,499.90,488.42,36.94,0000 0000 0000 0000 000000
2014-09-06 09:02:06,-0.02,1.30,0.00,24.63,28.95,31.32,9.45,38.09,1005.39,2030.22,2949.02,2941.19,3148.04,500.39,488.86,36.98,0000 0000 0000 0000 000000
2014-09-06 09:07:07,0.02,1.30,0.00,24.63,28.95,31.31,9.36,38.20,1005.40,2030.25,2949.04,2941.10,3148.01,500.03,488.56,37.02,0000 0000 0000 0000 000000
2014-09-06 09:12:09,0.00,1.30,0.00,24.62,28.95,31.33,9.40,38.16,1005.48,2030.27,2949.05,2941.10,3148.02,499.89,488.54,37.06,0000 0000 0000 0000 000000
2014-09-06 09:17:10,-0.01,1.30,0.00,24.60,28.95,31.33,9.44,38.44,1005.71,2030.19,2949.04,2941.07,3148.01,500.19,488.96,37.11,0000 0000 0000 0000 000000
2014-09-06 09:22:11,0.01,1.30,0.00,24.60,28.95,31.31,9.39,38.46,1005.85,2030.20,2949.00,2941.04,3148.00,499.70,488.62,37.15,0000 0000 0000 0000 000000
2014-09-06 09:27:12,-0.01,1.30,0.00,24.58,28.94,31.30,9.50,38.64,1005.86,2030.17,2949.01,2941.03,3148.00,500.56,489.43,37.19,0000 0000 0000 0000 000000
2014-09-06 09:32:13,0.01,1.30,0.00,24.57,28.93,31.31,9.42,38.59,1005.87,2030.23,2949.01,2941.04,3148.01,500.18,489.14,37.23,0000 0000 0000 0000 000000
2014-09-06 09:37:14,-0.00,1.30,0.00,24.55,28.92,31.30,9.40,38.70,1005.87,2030.22,2949.01,2941.02,3148.00,500.15,489.22,37.27,0000 0000 0000 0000 000000
2014-09-06 09:42:15,-0.00,1.30,0.00,24.55,28.92,31.30,9.38,38.76,1005.89,2030.22,2949.00,2941.02,3148.00,500.02,488.82,37.31,0000 0000 0000 0000 000000
2014-09-06 09:47:16,-0.00,1.30,0.00,24.54,28.92,31.29,9.39,38.69,1005.95,2030.23,2949.00,2941.01,3148.00,500.03,488.99,37.36,0000 0000 0000 0000 000000
2014-09-06 09:52:18,0.03,1.30,0.00,24.53,28.92,31.28,9.41,38.53,1006.27,2030.30,2949.01,2941.01,3148.00,500.18,489.20,37.40,0000 0000 0000 0000 000000
2014-09-06 09:57:18,0.02,1.30,0.00,24.51,28.92,31.27,9.41,38.66,1006.36,2030.65,2949.04,2941.05,3148.00,500.33,489.67,37.44,0000 0000 0000 0000 000000
2014-09-06 10:02:19,-0.01,1.30,0.00,24.52,28.91,31.27,9.49,38.71,1006.36,2030.51,2949.03,2941.03,3148.00,500.31,489.48,37.48,0000 0000 0000 0000 000000
2014-09-06 10:07:20,0.02,1.30,0.00,24.50,28.90,31.28,9.49,38.62,1006.37,2030.67,2949.15,2941.09,3148.01,500.20,489.27,37.52,0000 0000 0000 0000 000000
2014-09-06 10:12:22,-0.00,1.30,0.00,24.49,28.90,31.26,9.49,38.69,1006.38,2030.80,2949.15,2941.14,3148.03,500.53,489.63,37.56,0000 0000 0000 0000 000000
2014-09-06 10:17:23,0.01,1.30,0.00,24.48,28.90,31.26,9.46,38.52,1006.39,2030.92,2949.08,2941.28,3148.09,500.06,489.33,37.61,0000 0000 0000 0000 000000
2014-09-06 10:22:24,0.01,1.30,0.00,24.47,28.90,31.26,9.51,38.52,1006.53,2030.97,2949.03,2941.21,3148.07,500.36,489.66,37.65,0000 0000 0000 0000 000000
2014-09-06 10:27:25,-0.01,1.30,0.00,24.46,28.88,31.23,9.52,38.52,1006.74,2030.97,2949.08,2941.28,3148.08,500.24,489.73,37.69,0000 0000 0000 0000 000000
2014-09-06 10:32:26,-0.01,1.30,0.00,24.43,28.87,31.24,9.56,38.40,1006.84,2030.98,2949.27,2941.63,3148.25,500.49,490.09,37.73,0000 0000 0000 0000 000000
2014-09-06 10:37:27,0.01,1.30,0.00,24.42,28.87,31.23,9.53,38.53,1006.85,2030.98,2949.15,2941.53,3148.23,500.11,489.68,37.77,0000 0000 0000 0000 000000
2014-09-06 10:42:28,-0.01,1.30,0.00,24.39,28.86,31.23,9.51,38.59,1006.85,2030.98,2949.29,2941.74,3148.42,500.19,489.61,37.81,0000 0000 0000 0000 000000
2014-09-06 10:47:30,0.01,1.30,0.00,24.37,28.85,31.22,9.59,38.59,1006.85,2030.98,2949.28,2941.73,3148.43,500.28,490.01,37.85,0000 0000 0000 0000 000000
2014-09-06 10:52:31,-0.01,1.30,0.00,24.35,28.84,31.20,9.49,38.50,1006.86,2030.98,2949.40,2941.83,3148.53,500.47,490.13,37.90,0000 0000 0000 0000 000000
2014-09-06 10:57:32,-0.01,1.30,0.00,24.34,28.82,31.19,9.54,38.61,1006.87,2030.99,2949.59,2941.92,3148.82,500.54,490.15,37.94,0000 0000 0000 0000 000000
2014-09-06 11:02:33,-0.00,1.30,0.00,24.32,28.82,31.18,9.44,38.65,1006.88,2030.99,2949.88,2941.97,3148.95,499.69,489.23,37.98,0000 0000 0000 0000 000000
2014-09-06 11:07:34,0.00,1.30,0.00,24.31,28.80,31.16,9.46,38.52,1006.91,2030.99,2949.93,2941.98,3148.96,499.96,489.74,38.02,0000 0000 0000 0000 000000
2014-09-06 11:12:35,0.00,1.30,0.00,24.28,28.80,31.19,9.50,38.53,1007.09,2030.99,2949.98,2941.99,3148.99,499.88,490.03,38.06,0000 0000 0000 0000 000000
2014-09-06 11:17:36,0.00,1.30,0.00,24.25,28.77,31.15,9.49,38.43,1007.31,2031.00,2949.98,2941.99,3148.99,499.90,489.95,38.10,0000 0000 0000 0000 000000
2014-09-06 11:22:37,0.00,1.30,0.00,24.22,28.77,31.12,9.48,38.57,1007.34,2031.01,2949.99,2941.99,3149.00,499.66,489.81,38.15,0000 0000 0000 0000 000000
2014-09-06 11:27:38,0.00,1.30,0.00,24.22,28.75,31.12,9.51,38.65,1007.34,2031.00,2949.99,2942.00,3149.00,500.10,490.24,38.19,0000 0000 0000 0000 000000
2014-09-06 11:32:40,-0.00,1.30,0.00,24.20,28.74,31.11,9.49,38.45,1007.35,2031.04,2949.99,2942.02,3149.02,500.37,490.44,38.23,0000 0000 0000 0000 000000
2014-09-06 11:37:41,0.00,1.30,0.00,24.19,28.72,31.11,9.56,38.55,1007.37,2031.10,2950.00,2942.08,3149.06,500.20,490.54,38.27,0000 0000 0000 0000 000000
2014-09-06 11:42:42,0.01,1.30,0.00,24.19,28.71,31.08,9.35,38.54,1007.46,2031.20,2950.01,2942.14,3149.24,499.76,489.97,38.31,0000 0000 0000 0000 000000
2014-09-06 11:47:43,0.02,1.30,0.00,24.15,28.70,31.06,9.53,38.64,1007.64,2031.65,2950.04,2942.59,3149.69,500.18,490.66,38.35,0000 0000 0000 0000 000000
2014-09-06 11:52:44,0.02,1.30,0.00,24.15,28.67,31.05,9.53,38.62,1007.80,2031.78,2950.03,2942.72,3149.78,500.45,490.82,38.39,0000 0000 0000 0000 000000
2014-09-06 11:57:45,-0.00,1.30,0.00,24.12,28.66,31.04,9.43,38.55,1007.80,2031.87,2950.06,2942.85,3149.90,499.83,490.19,38.44,0000 0000 0000 0000 000000
2014-09-06 12:02:46,-0.00,1.30,0.00,24.08,28.65,31.00,9.54,38.49,1007.82,2031.95,2950.29,2942.97,3149.98,500.00,490.60,38.48,0000 0000 0000 0000 000000
2014-09-06 12:07:47,-0.01,1.30,0.00,24.07,28.63,30.98,9.53,38.67,1007.83,2031.96,2950.62,2942.98,3149.98,500.19,490.78,38.52,0000 0000 0000 0000 000000
2014-09-06 12:12:48,-0.00,1.30,0.00,24.07,28.62,30.98,9.47,38.62,1007.83,2031.99,2950.82,2942.99,3149.99,500.14,490.83,38.56,0000 0000 0000 0000 000000
2014-09-06 12:17:50,0.00,1.30,0.00,24.05,28.60,30.97,9.46,38.70,1007.84,2031.99,2950.94,2942.99,3150.00,500.08,490.64,38.60,0000 0000 0000 0000 000000
2014-09-06 12:22:51,0.00,1.30,0.00,24.01,28.58,30.94,9.56,38.63,1007.84,2031.99,2950.97,2942.99,3150.02,500.12,491.09,38.64,0000 0000 0000 0000 000000
2014-09-06 12:27:52,0.00,1.30,0.00,23.99,28.56,30.92,9.56,38.62,1007.84,2031.99,2950.99,2943.02,3150.06,500.34,491.08,38.69,0000 0000 0000 0000 000000
2014-09-06 12:32:53,-0.01,1.30,0.00,23.94,28.55,30.93,9.50,38.64,1007.85,2031.99,2950.99,2943.06,3150.21,500.48,491.45,38.73,0000 0000 0000 0000 000000
2014-09-06 12:37:54,-0.03,1.30,0.00,23.92,28.53,30.91,9.58,38.69,1007.91,2031.99,2951.02,2943.53,3150.82,500.40,491.43,38.77,0000 0000 0000 0000 000000
2014-09-06 12:42:55,-0.01,1.30,0.00,23.90,28.51,30.90,9.41,38.73,1008.05,2032.02,2951.14,2943.93,3150.97,499.80,490.94,38.81,0000 0000 0000 0000 000000
2014-09-06 12:47:56,-0.00,1.30,0.00,23.87,28.50,30.89,9.58,38.59,1008.26,2032.06,2951.45,2943.98,3150.99,500.23,491.38,38.85,0000 0000 0000 0000 000000
2014-09-06 12:52:57,-0.00,1.30,0.00,23.85,28.47,30.89,9.47,38.61,1008.31,2032.12,2951.83,2943.99,3150.99,499.93,491.16,38.89,0000 0000 0000 0000 000000
2014-09-06 12:57:58,0.01,1.30,0.00,23.86,28.46,30.89,9.60,38.61,1008.31,2032.19,2951.87,2943.99,3151.00,500.47,491.73,38.94,0000 0000 0000 0000 000000